AO-07 1 07530U 74089B 16364.88790880 -.00000049 00000-0 -29964-4 0 9990 2 07530 101.6057 331.0839 0011842 292.0023 95.9157 12.53624835927641 UO-11 1 14781U 84021B 16364.73014300 .00000106 00000-0 19404-4 0 9993 2 14781 97.7230 50.4568 0009410 42.6444 317.5499 14.82843008765236 LO-19 1 20442U 90005G 16364.80434583 -.00000006 00000-0 13919-4 0 9995 2 20442 98.5619 297.1718 0010737 290.7062 69.2971 14.32843873407368 HUBBLE 1 20580U 90037B 16364.23563020 .00000568 00000-0 24159-4 0 9999 2 20580 28.4709 50.4078 0002897 140.5447 95.3687 15.08632429264596 MET-2/21 1 22782U 93055A 16364.53775637 .00000017 00000-0 14687-5 0 9995 2 22782 82.5484 158.2167 0022429 183.9150 240.2947 13.83795421178232 AO-27 1 22825U 93061C 16364.86468097 -.00000005 00000-0 15698-4 0 9995 2 22825 98.7884 322.5934 0009442 104.0079 256.2153 14.29981301213203 IO-26 1 22826U 93061D 16364.86456956 .00000001 00000-0 18023-4 0 9997 2 22826 98.7826 322.6949 0010013 95.7735 264.4588 14.30308479213370 FO-29 1 24278U 96046B 16364.53488208 .00000017 00000-0 51622-4 0 9994 2 24278 98.5837 264.1649 0351183 56.9114 306.5229 13.53073329 5934 NOAA-15 1 25338U 98030A 16364.94917610 .00000010 00000-0 23283-4 0 9991 2 25338 98.7827 9.5040 0010065 343.4325 16.6508 14.25770539968897 GO-32 1 25397U 98043D 16364.39010795 -.00000020 00000-0 99442-5 0 9990 2 25397 98.5917 304.4791 0002200 111.8098 248.3315 14.23611724959636 ISS 1 25544U 98067A 16364.88402127 .00001971 00000-0 37254-4 0 9995 2 25544 51.6420 162.2905 0006832 31.7084 121.6405 15.53959987 35421 NO-44 1 26931U 01043C 16364.55461482 -.00000046 00000-0 14162-4 0 9993 2 26931 67.0498 168.8639 0006054 281.2168 78.8253 14.30441326796082 SO-50 1 27607U 02058C 16364.40138090 .00000008 00000-0 21878-4 0 9990 2 27607 64.5561 284.3750 0044442 168.1596 192.0563 14.75265475754068 CO-55 1 27844U 03031E 16364.08045613 .00000064 00000-0 48795-4 0 9996 2 27844 98.6912 9.5564 0010660 116.9354 243.2913 14.22004828700140 CO-57 1 27848U 03031J 16364.87897680 .00000045 00000-0 40403-4 0 9993 2 27848 98.7006 10.5276 0010519 122.9595 237.2595 14.21624194700140 RS-22 1 27939U 03042A 16364.91051456 .00000099 00000-0 26256-4 0 9993 2 27939 97.9133 149.3775 0013930 47.9721 68.0067 14.66505321708506 NOAA-18 1 28654U 05018A 16364.59554261 .00000006 00000-0 28539-4 0 9993 2 28654 99.1929 16.5735 0014293 183.9253 176.1808 14.12319944598329 CO-58 1 28895U 05043F 16364.18845342 .00000161 00000-0 39797-4 0 9996 2 28895 97.8444 168.5162 0016050 325.3276 34.6880 14.63320079595620 CO-65 1 32785U 08021C 16364.83060024 .00000269 00000-0 35115-4 0 9995 2 32785 97.5829 30.6991 0013474 15.9690 344.1949 14.87763762469716 AAUSAT2 1 32788U 08021F 16363.88455104 .00000352 00000-0 38545-4 0 9992 2 32788 97.5804 40.1129 0011577 347.1786 12.9138 14.93615786470259 DO-64 1 32789U 08021G 16363.90032294 .00001745 00000-0 12977-3 0 9994 2 32789 097.5837 059.5819 0011888 325.6022 034.4433 15.04233058471164 CO-66 1 32791U 08021J 16364.15377026 .00000397 00000-0 46626-4 0 9991 2 32791 97.5823 33.8723 0013516 5.1131 355.0223 14.90044286469828 RS-30 1 32953U 08025A 16364.46019370 .00000006 00000-0 -24692-4 0 9991 2 32953 82.5029 345.2073 0017991 298.5014 61.4254 12.43074122390336 PRISM 1 33493U 09002B 16364.68803206 .00001113 00000-0 10642-3 0 9998 2 33493 98.1904 233.7460 0014238 285.4530 74.5096 14.95389100430441 NOAA-19 1 33591U 09005A 16364.50642449 .00000064 00000-0 59538-4 0 9993 2 33591 99.0688 323.1466 0014603 32.6768 327.5304 14.12139775406705 TISAT-1 1 36799U 10035E 16364.20631133 .00000600 00000-0 67991-4 0 9994 2 36799 98.0452 117.7336 0013025 160.1507 200.0219 14.90168210350478 JUGNU 1 37839U 11058B 16364.18119084 .00000316 00000-0 26871-4 0 9995 2 37839 19.9625 41.2869 0019200 109.1382 293.5290 14.12567063269631 SRMSAT 1 37841U 11058D 16364.58658869 .00000274 00000-0 53752-5 0 9993 2 37841 19.9726 77.0219 0012026 18.9719 122.1258 14.10561328269303 AO-71 1 37854U 11061E 16364.38271751 .00002098 00000-0 12108-3 0 9994 2 37854 101.7030 145.6430 0169785 217.1463 141.7902 15.03351444281414 HRBE 1 37855U 11061F 16364.87384385 .00003336 00000-0 18365-3 0 9994 2 37855 101.7156 144.3053 0183218 221.3240 137.3986 15.02295140281364 ALMASAT-1 1 38078U 12006B 16364.81590293 .00019737 36147-5 24333-3 0 9993 2 38078 69.4446 225.4007 0344523 179.5139 180.6435 15.13535896259084 HORYU-2 1 38340U 12025D 16363.98383317 .00000266 00000-0 47382-4 0 9991 2 38340 98.3697 355.9831 0012805 111.0198 249.2381 14.75218706248197 RS-40 1 38735U 12041C 16364.80166185 .00000008 00000-0 -11807-4 0 9999 2 38735 82.4762 69.8106 0017144 40.9755 319.2610 12.42574139200668 BEESAT-3 1 39134U 13015E 16364.64405629 .00001560 00000-0 87950-4 0 9991 2 39134 64.8699 53.3699 0022230 308.1812 51.7311 15.17061742203750 BEESAT-2 1 39136U 13015G 16364.17508143 .00001354 00000-0 83229-4 0 9992 2 39136 64.8709 63.3029 0023305 303.8563 56.0344 15.14502041203529 ZACUBE-1 1 39417U 13066B 16363.86013783 .00000278 00000-0 41745-4 0 9997 2 39417 097.6543 048.1472 0060910 106.6554 254.1358 14.80586289167574 TRITON-1 1 39427U 13066M 16364.53635176 .00000231 00000-0 44998-4 0 9991 2 39427 97.6491 25.1793 0114804 171.4383 188.8818 14.67349431166169 GOMX-1 1 39430U 13066Q 16364.82289940 .00000179 00000-0 41856-4 0 9992 2 39430 97.6628 10.8202 0151299 217.4975 141.5598 14.58759568165243 LO-74 1 39440U 13066AA 16363.88115038 .00000245 00000-0 41347-4 0 9993 2 39440 97.6499 38.7214 0082052 132.1554 228.6665 14.75335498166983 AO-73 1 39444U 13066AE 16363.71976108 .00000335 00000-0 48189-4 0 9993 2 39444 97.6557 48.8523 0060117 104.5726 256.2165 14.81293984166374 SPROUT 1 39770U 14029E 16364.82085039 .00001025 00000-0 12375-3 0 9996 2 39770 97.8728 99.9428 0009883 155.6225 204.5435 14.85898218140983 DUCHIFAT-1 1 40021U 14033M 16364.70586649 .00000568 00000-0 65330-4 0 9993 2 40021 97.9246 271.5831 0013970 134.8563 225.3792 14.89661739137367 NANOSATCBR1 1 40024U 14033Q 16364.16264130 .00000460 00000-0 54866-4 0 9997 2 40024 97.9214 270.1801 0013216 136.8218 223.4037 14.89019578137245 EO-79 1 40025U 14033R 16364.52403562 .00000342 00000-0 43054-4 0 9998 2 40025 97.9204 269.8210 0013447 137.8688 222.3564 14.88260457137259 DTUSAT-2 1 40030U 14033W 16364.21754588 .00000332 00000-0 42401-4 0 9991 2 40030 97.9176 268.7942 0012969 133.1501 227.0801 14.87887396137188 EO-80 1 40032U 14033Y 16364.79030529 .00000328 00000-0 41946-4 0 9996 2 40032 97.9183 269.3739 0012966 131.8050 228.4276 14.87822176137254 ANTELSAT 1 40034U 14033AA 16364.73634374 .00000280 00000-0 49476-4 0 9993 2 40034 97.8807 247.6875 0060318 117.0232 243.7151 14.73574823135977 VELOX-1 1 40057U 14034E 16364.80297631 .00000486 00000-0 76620-4 0 9997 2 40057 98.1898 96.5318 0009983 236.5542 123.4695 14.76959055134750 DAURIA DX 1 1 40071U 14037C 16364.88443308 .00000183 00000-0 31033-4 0 9991 2 40071 98.3308 103.3580 0007453 232.9313 127.1212 14.80939305133912 UKUBE-1 1 40074U 14037F 16364.71679739 .00000495 00000-0 67524-4 0 9995 2 40074 98.3378 106.1922 0003700 226.8060 133.2847 14.83331880134050 HODOYOSHI-1 1 40299U 14070B 16364.84750889 .00000988 00000-0 46411-4 0 9990 2 40299 97.4179 84.0966 0012713 333.1103 159.4006 15.21893541119188 CHUBUSAT-1 1 40300U 14070C 16364.85280611 .00001032 00000-0 50259-4 0 9991 2 40300 97.4115 81.7690 0020444 338.8025 158.2445 15.20457322119056 QSAT-EOS 1 40301U 14070D 16364.85899938 .00002380 00000-0 10521-3 0 9994 2 40301 97.4059 81.4257 0027841 335.4877 117.4637 15.22355520119066 FIREBIRD FU3 1 40377U 15003B 16364.84326420 .00003580 00000-0 15862-3 0 9990 2 40377 99.1059 149.3259 0139061 202.7187 156.7848 15.14236107105371 FIREBIRD FU4 1 40378U 15003C 16364.83778876 .00003857 00000-0 17030-3 0 9992 2 40378 99.1062 149.3444 0139253 202.6672 156.8368 15.14253424105372 GRIFEX 1 40379U 15003D 16364.69648215 .00003112 00000-0 14536-3 0 9992 2 40379 99.1069 147.6470 0144215 208.7039 150.6196 15.12083918105264 NO-84 1 40654U 15025D 16364.25840215 .00006044 00000-0 12543-3 0 03232 2 40654 054.9982 274.1677 0191948 198.4032 160.9966 15.30029256053852 NO-83 1 40655U 15025E 16364.18178645 .00012735 00000-0 22139-3 0 03603 2 40655 054.9849 260.0165 0166168 205.7883 153.4793 15.37366901054026 DEORBITSAIL 1 40719U 15032E 16364.29819149 .00000527 00000-0 84196-4 0 9991 2 40719 97.9980 254.0066 0016229 334.3040 25.7361 14.75854046 79267 NUDT-PHONESAT 1 40900U 15049B 16364.79387925 .00002165 00000-0 10839-3 0 9990 2 40900 97.4437 9.2475 0016193 95.7024 264.6057 15.18356300 70743 XW-2A 1 40903U 15049E 16364.85961872 .00002008 00000-0 56163-4 0 9996 2 40903 97.4347 22.4521 0016176 148.5575 211.6640 15.37792174 71615 XW-2C 1 40906U 15049H 16364.81944430 .00000836 00000-0 49304-4 0 9992 2 40906 97.4537 7.7571 0017085 81.9354 278.3815 15.14159054 70606 XW-2D 1 40907U 15049J 16364.81296677 .00000905 00000-0 52955-4 0 9999 2 40907 97.4505 7.5601 0016445 80.4178 279.8911 15.14237253 70602 LILACSAT-2 1 40908U 15049K 16364.84796507 .00000467 00000-0 30092-4 0 9991 2 40908 97.4606 7.5116 0017924 77.3344 282.9889 15.12889115 70561 XW-2F 1 40910U 15049M 16364.83770626 .00001325 00000-0 74374-4 0 9992 2 40910 97.4531 8.0138 0017356 78.7848 281.5334 15.14944048 70507 XW-2B 1 40911U 15049N 16364.81535187 .00000878 00000-0 51496-4 0 9994 2 40911 97.4550 7.8486 0016345 80.6837 279.6242 15.14208398 70506 DCBB 1 40912U 15049P 16364.73070493 .00001893 00000-0 98890-4 0 9997 2 40912 97.4511 9.2579 0017789 73.3818 15.7600 15.16980341 70597 TW-1C 1 40926U 15051B 16364.75112816 .00007577 00000-0 19144-3 0 9992 2 40926 97.2526 39.7454 0014532 66.4932 26.2433 15.39982884 70825 TW-1A 1 40928U 15051D 16364.82993547 .00002991 00000-0 90792-4 0 9994 2 40928 97.2486 37.6495 0015037 85.6986 328.7519 15.34762791 70718 IO-86 1 40931U 15052B 16364.29538991 .00000849 00000-0 29345-4 0 9994 2 40931 5.9997 4.0622 0013908 359.8010 0.2299 14.76505704 67812 GomX-3 1 40949U 98067HA 16292.18357804 .08527750 12374-4 77882-3 0 9992 2 40949 51.6055 106.7696 0006699 286.1344 73.8944 16.38002265 59645 LQSat 1 40958U 15057A 16364.89367949 .00000067 00000-0 18335-4 0 9996 2 40958 97.9970 77.0247 0016873 247.5271 112.4135 14.72934062 66196 AO-85 1 40967U 15058D 16364.30099515 .00000193 00000-0 41154-4 0 03533 2 40967 064.7775 014.1427 0180170 140.3304 221.1144 14.75282999052058 ATHENOXAT-1 1 41168U 15077C 16364.18529412 .00002678 00000-0 11675-3 0 9998 2 41168 14.9907 330.7483 0012233 179.1227 288.5801 15.10928456 57285 ChubuSat-2 1 41338U 16012B 16363.69496885 .00000450 00000-0 28799-4 0 9991 2 41338 31.0030 114.9552 0013860 172.3811 187.7037 14.99606114 47371 ChubuSat-3 1 41339U 16012C 16364.71192789 .00000524 00000-0 34420-4 0 9992 2 41339 31.0110 107.9233 0013629 188.4845 171.5558 14.99823310 47500 Horyu-4 1 41340U 16012D 16363.68937504 .00000688 00000-0 46666-4 0 9997 2 41340 31.0050 112.9754 0014162 185.3137 174.7349 15.00375072 47381 OUFTI-1 1 41458U 16025C 16364.58430472 .00001416 00000-0 80390-4 0 9995 2 41458 98.2050 26.3796 0178440 135.2455 226.3326 15.02337367 37102 e-st@r-II 1 41459U 16025D 16364.85737283 .00001355 00000-0 77107-4 0 9990 2 41459 98.2067 26.6448 0179194 134.5210 227.0816 15.02250111 37143 AAUSAT4 1 41460U 16025E 16364.73804831 .00002860 00000-0 15876-3 0 9999 2 41460 98.1996 26.5582 0172299 134.4317 227.1113 15.02842090 37132 MinXSS 1 41474U 98067HU 16364.83690368 .00034947 00000-0 26672-3 0 9996 2 41474 51.6417 148.8125 0002732 194.3081 165.7840 15.71852307 35542 CADRE 1 41475U 98067HV 16364.80879842 .01004176 59257-3 10885-2 0 9991 2 41475 51.6228 137.0996 0007736 313.9996 46.0379 16.09297547 35697 NODES 1 1 41477U 98067HX 16363.92090376 .00023834 00000-0 22726-3 0 9990 2 41477 051.6351 156.8924 0002539 162.8826 197.2256 15.66649747035266 NODES 2 1 41478U 98067HY 16364.82419083 .00022410 00000-0 21498-3 0 9995 2 41478 51.6355 152.4228 0002420 165.4889 194.6177 15.66540405 35407 LO-87 1 41557U 16033B 16364.84788971 .00001631 00000-0 65511-4 0 9990 2 41557 97.4803 78.3142 0013196 241.6769 118.3139 15.26359388 32590 NuSat2 1 41558U 16033C 16364.80151438 .00001747 00000-0 70246-4 0 9998 2 41558 97.4829 78.2929 0012711 240.3303 119.6671 15.26229486 32582 Lapan A3 1 41603U 16040E 16364.85062823 .00000247 00000-0 14979-4 0 9996 2 41603 97.4868 62.6325 0012532 310.5082 176.1902 15.19230744 28949 Swayam 1 41607U 16040J 16364.85510579 .00001705 00000-0 82226-4 0 9996 2 41607 97.4848 62.6717 0013357 312.1726 47.8374 15.20009607 28878 Pratham 1 41783U 16059A 16364.11342945 .00000072 00000-0 23643-4 0 9994 2 41783 98.1922 61.0330 0033046 335.9183 24.0472 14.62792623 13732 AlSat 1N 1 41789U 16059G 16364.72034401 .00000154 00000-0 38678-4 0 9997 2 41789 98.1922 61.8135 0027833 329.6978 30.2616 14.63993380 13810 ScatSat 1 41790U 16059H 16364.17475482 .00000032 00000-0 19006-4 0 9995 2 41790 98.0911 55.1914 0010309 315.3807 44.6557 14.50088122 13620 TY-1 1 41844U 16066D 16364.83763054 -.00000070 00000-0 00000 0 0 9993 2 41844 97.4060 8.6183 0018058 108.9013 14.0360 15.21561279 7582 CAS-2T 1 41845U 16066E 16364.72479842 -.00000069 00000-0 00000 0 0 9999 2 41845 98.7820 10.2715 0367688 31.2844 330.9692 14.37674567 7148 Pegasus-1 1 41846U 16066F 16364.68521672 -.00000069 00000-0 00000 0 0 9994 2 41846 98.7841 10.1810 0370569 32.0290 330.2941 14.36821327 7139 BY70-1 1 41909U 16083C 16364.71713057 -.00000710 22426-5 00000 0 0 9991 2 41909 97.5944 76.3052 0229279 3.6264 356.4716 15.66809223 237 /EX